Regional Weather Roundup
Issued by NWS Green Bay, WI

Home | Current Version | Previous Version | Text Only | Print | Product List | Glossary On
Versions: 1 2 3 4 5 6 7 8 9 10 11 12 13 14 15 16 17 18 19 20 21 22 23 24 25 26 27 28 29 30 31 32 33 34 35 36 37 38 39 40 41 42 43 44 45 46 47 48 49 50
000
ASUS43 KGRB 290911
RWRGRB

NORTH-CENTRAL AND NORTHEAST WISCONSIN REGIONAL WEATHER ROUNDUP
NATIONAL WEATHER SERVICE GREEN BAY WI
400 AM CDT MON MAY 29 2017

WIZ005-009-010>012-018-019-291000-
NORTH CENTRAL WISCONSIN

CITY           SKY/WX    TMP DP  RH WIND       PRES   REMARKS
IRONWOOD       CLOUDY    51  48  89 W9        29.61S
MANITOWISH WTR CLOUDY    47  47 100 SW6       29.62S
ARBOR VITAE    CLEAR     49  47  93 SW5       29.63S
EAGLE RIVER    CLEAR     47  47 100 SW5       29.62S
LAND O LAKES   PTCLDY    48  47  95 CALM      29.63S
RHINELANDER    PTCLDY    50  47  89 W9        29.65S
PHILLIPS       CLOUDY    47  46  97 W5        29.65S
ANTIGO         PTCLDY    48  47  95 W7        29.66S
TOMAHAWK       CLOUDY    50  46  87 W3        29.66S
MERRILL        CLOUDY    52  48  87 W5        29.66F
$$

WIZ013-073-291000-
NORTHEAST WISCONSIN

CITY           SKY/WX    TMP DP  RH WIND       PRES   REMARKS
IRON MOUNTAIN  PTCLDY    47  44  90 W3        29.60F
MARINETTE      NOT AVBL
OCONTO         CLOUDY    52  48  86 W5        29.65S
$$

WIZ017-030-035>037-045-291000-
CENTRAL WISCONSIN

CITY           SKY/WX    TMP DP  RH WIND       PRES   REMARKS
MEDFORD        PTCLDY    50  46  86 W6        29.66F
WAUSAU         CLEAR     52  47  83 W10       29.66S
MOSINEE        CLOUDY    50  50 100 SW3       29.69S
MARSHFIELD     CLOUDY    51  46  83 W6        29.67F
WISC RAPIDS    MOCLDY    52  48  86 SW7       29.70S
STEVENS POINT  MOCLDY    50  48  93 SW3       29.69S
WAUPACA        PTCLDY    54  49  85 CALM      29.69S
SHAWANO        CLOUDY    55  49  81 SW3       29.67S
CLINTONVILLE   CLOUDY    54  46  76 SW5       29.67F
WAUTOMA        CLOUDY    51  49  92 CALM      29.70F
$$

WIZ038-039-048-051-291000-
FOX VALLEY

CITY           SKY/WX    TMP DP  RH WIND       PRES   REMARKS
NWS GREEN BAY  CLOUDY    55  49  80 SW5       29.67F
APPLETON       CLOUDY    54  45  71 W5        29.67F
OSHKOSH        PTCLDY    53  47  79 SW3       29.68F
FOND DU LAC    MOCLDY    54  46  74 S5        29.70F
$$

WIZ022-050-052-291000-
EAST CENTRAL WISCONSIN

CITY           SKY/WX    TMP DP  RH WIND       PRES   REMARKS
EPHRAIM        FAIR     N/A N/A N/A W6        29.63S
WASHINGTON ISL FAIR      47  47 100 SW5       29.63S FOG
STURGEON BAY   CLEAR     54  49  83 SW7       29.66S
MANITOWOC      MOCLDY    56  48  74 W6        29.69S
SHEBOYGAN      PTCLDY    50  48  93 SW5       29.69F
$$

LMZ563-521-522-541>543-291000-
LAKESHORE

STATION/POSITION TIME  TEMP    WIND        PRES    VSBY  WAVE
                       AIR SEA DIR/SP/G                  HT/PER
                 (UTC) (F)     (DEG/KT/KT) (MB)    (MI)  (FT/S)
SHEBOYGAN LKSHOR 0900   56     240/  8/  9 1005.3F
KEWAUNEE LKSHORE 0842   56     260/  5/  8 1004.5R
NORTHPORT PIER   0840   52     250/  3/  7 1003.4S
N MID LAKE BUOY  0850   42 41  190/  6/  6 1004.5S
SISTER BAY LKSHO 0821   54     250/  8/  9   N/A
CHAMBERS ISLAND  0840   53     200/  6/  9 1003.4S
MENOMINEE LKSHOR 0836          230/  6/  8 1003.1F
$$



USA.gov is the U.S. government's official web portal to all federal, state and local government web resources and services.